カタログに戻る

COSMOS 2224

運用中ナビゲーションGEO
NORAD 22269·PAYLOAD·🇷🇺 Russia

打ち上げ Dec 17, 1992 から Baikonur Cosmodrome

Loading…

TLE

最新Source: Space-Track

元期: Sep 14, 2026, 01:59 UTC

1 22269U 92088A   26257.08302605 -.00000305  00000-0  00000-0 0  9993
2 22269  13.6040 347.3238 0007550 264.3893  84.8566  1.00207654122972

AllMySatでCOSMOS 2224をリアルタイム追跡

Download on the App Store